Location: Cactus School
(34.5700°N, 118.0931°W)
Time: 01:16:27
(UTC-07:00)

Envisat - Visible Passes

Search period start: 21 April 2019 00:00
Search period end: 01 May 2019 00:00
Orbit: 764 x 766 km, 98.2° (Epoch: 20 April)

Date Brightness Start Highest point End Pass type
(mag) Time Alt. Az. Time Alt. Az. Time Alt. Az.
22 Apr 5.8 20:49:13 10° SW 20:51:53 14° W 20:54:33 10° WNW visible
23 Apr 4.8 20:10:18 10° SSW 20:14:53 34° W 20:19:29 10° NNW visible
25 Apr 5.7 20:37:05 10° SW 20:40:34 19° W 20:44:04 10° NW visible
26 Apr 4.3 19:58:48 10° S 20:03:37 44° W 20:08:28 10° NNW visible
28 Apr 5.4 20:25:12 10° SSW 20:29:16 24° W 20:33:20 10° NW visible
30 Apr 5.9 20:52:49 10° WSW 20:55:00 13° W 20:57:11 10° WNW visible
